User: anonymous   Login
Location: Oshawa
(43.9000°N, 78.8670°W)
Time: 22:36:59
(UTC-04:00)
Language:

Cosmos 1408 Rocket - Orbit

View from above orbital plane
View from above orbital plane
View from above satellite
View from above satellite

Ground track
Ground track

The orbit data is extracted from the following two-line orbital elements,

1 13553U 82092B   16207.50184841  .00000139  00000-0  13690-4 0  9991
2 13553  82.5689 178.4334 0022650  47.2899  92.0733 14.84067171828585
Epoch (UTC): 25 July 2016 12:02:39
Eccentricity: 0.0022650
inclination: 82.5689°
perigee height: 600 km
apogee height: 632 km
right ascension of ascending node: 178.4334°
argument of perigee: 47.2899°
revolutions per day: 14.84067171
mean anomaly at epoch: 92.0733°
orbit number at epoch: 82858

The dashed part of the orbit path shows where the satellite is in the earth's shadow,  

DLR